Starlink 6326

operational
NORAD ID: 56787 Int'l Des: 2023-078 Owner: SPXS Country: US Constellation: starlink
LEOCIRCULAR

关于 Starlink 6326

正在加载描述...

实时位置

正在加载3D地球...

即将过境

高度历史

Altitude vs Time

uPlot chart will show altitude changes over time

两行轨道根数

1 56787U 23078W 26035.29467903 -.00000091 00000-0 16617-6 0 9997
2 56787 69.9997 48.5638 0002912 271.6218 88.4608 14.98332248148178
Epoch: Feb 4, 2026 • Age: 6 hours

当前状态

高度 577.8 km
速度 7.57 km/s
星下点 -17.62°S, 91.57°W
发射日期 May 31, 2023
运行时间 2.6 years
类型 internet

技术详情

分类 Payload
质量 305.00 kg
干质量 290.00 kg
总质量 305.00 kg
长度 0.20 m
直径 2.80 m
跨度 9.00 m
形状 Box + pan
制造商 SPXS
平台类型 Starlink
阶段状态 In Orbit
所有者/国家 SPXS/US

大型星座

Loading constellations...